[[{"header":{"parameterUnit":"m.s-1","parameterCategory":1,"la1":30.2991,"la2":30.254,"lo1":-89.0895,"lo2":-89.0444,"dy":0.0017,"dx":0.0017,"nx":28,"ny":28,"refTime":"2025-03-18T03:00:00:Z","depth":0,"parameterNumber":2,"parameterNumberName":"U-component_of_WINDS"},"data":[0,0,0,0,0,0,0,0,0,0,0,0,0,0,0,0,0,0,0,0,0,0,0,0,0,0,0,0,0,0,0,0,0,0,0,0,0,0,0,0,0,0,0,0,0,0,0,0,0,0,0,0,0,0,0,0,0,0,1.7795,1.7794,0,1.7755,1.7754,1.7754,1.7672,1.7671,1.7669,1.7667,1.763,1.763,1.7631,0,0,0,0,0,0,0,0,0,0,0,0,0,1.7805,1.7806,1.7795,1.7794,1.7794,1.7755,1.7754,1.7754,1.7672,1.767,1.7668,1.7667,1.7629,1.763,1.7631,0,0,0,0,0,0,0,0,0,0,0,0,0,1.7787,1.7806,1.7795,1.7749,1.7744,1.7755,1.7754,1.7754,1.7673,1.767,1.7668,1.7666,1.7629,1.763,1.7631,1.7685,0,0,1.7633,1.7633,0,0,0,0,0,0,0,0,1.7788,1.7786,1.7756,1.7752,1.7747,1.7716,1.7744,1.7731,1.7674,1.77,1.7667,1.7664,1.7661,1.7659,1.7656,1.7683,1.7681,1.7633,1.7634,1.7634,1.7634,0,0,0,0,0,0,0,1.7789,1.7788,1.7779,1.7756,1.775,1.7731,1.7726,1.7741,1.7695,1.7698,1.7691,1.7688,1.7658,1.7656,1.7655,1.7681,1.7633,1.7634,1.7634,1.7635,1.7751,1.7753,0,0,0,0,0,0,1.7797,1.7789,1.778,1.7778,1.7762,1.7733,1.7727,1.7728,1.7694,1.7687,1.769,1.7684,1.7656,1.7654,1.7653,1.7715,1.7634,1.7635,1.7635,1.7748,1.7751,1.7754,0,0,0,0,0,0,1.7797,1.7797,1.7782,1.7782,1.7779,1.7735,1.7738,1.7729,1.7727,1.7688,1.768,1.7696,1.7654,1.7652,1.7678,1.7713,1.7635,1.7636,1.7745,1.7749,1.7753,1.7839,0,0,0,0,0,0,1.7798,1.7797,1.7816,1.7783,1.7779,1.7806,1.774,1.773,1.7728,1.772,1.7692,1.7685,1.7652,1.7677,1.7678,1.7712,1.7636,1.7742,1.7747,1.7752,1.7832,1.7845,1.7856,0,0,0,0,0,1.7799,1.7843,1.7818,1.7817,1.7802,1.7808,1.7806,1.7765,1.7731,1.7751,1.7726,1.7686,1.7709,1.768,1.7681,1.7716,1.7739,1.7745,1.7751,1.7827,1.7842,1.7855,0,0,0,0,0,0,1.7882,1.7837,1.7809,1.7843,1.783,1.7794,1.7817,1.7783,1.7779,1.7772,1.7723,1.7718,1.775,1.7735,1.7704,1.7767,1.7718,1.7724,1.7775,1.7789,1.7801,1.7804,1.7637,0,0,0,0,0,1.7904,1.7912,1.7873,1.7907,1.7902,1.7861,1.7862,1.7832,1.7817,1.7811,1.7788,1.7776,1.778,1.7784,1.7785,1.783,1.7823,1.7854,1.7866,1.7876,1.7882,1.7906,1.792,1.7774,1.7774,1.7773,0,0,1.7951,1.7927,1.7935,1.7923,1.7909,1.792,1.7857,1.787,1.7878,1.7813,1.7836,1.7819,1.7802,1.7837,1.7852,1.7826,1.7921,1.7883,1.7891,1.7892,1.7913,1.7927,1.794,1.7778,1.7777,1.7776,0,0,1.804,1.8023,1.8049,1.8037,1.8017,1.7989,1.7996,1.7966,1.7952,1.7973,1.7925,1.7935,1.7943,1.7933,1.7929,1.8017,1.7981,1.8019,1.808,1.8104,1.8115,1.8125,1.8158,1.817,1.8025,1.8025,1.8026,0,1.8101,1.8113,1.8068,1.8085,1.8082,1.8023,1.8051,1.8041,1.8023,1.8023,1.7994,1.8004,1.7988,1.8021,1.8043,1.8041,1.8049,1.8022,1.8117,1.8126,1.8135,1.8166,1.8178,1.803,1.803,1.8029,1.8029,0,1.8189,1.8199,1.8223,1.8206,1.8206,1.8228,1.8188,1.8193,1.8164,1.8141,1.8164,1.8144,1.8141,1.8146,1.8118,1.8176,1.8161,1.8125,1.8075,1.8155,1.8182,1.8194,1.8037,1.8035,1.8034,1.8033,0,0,1.8329,1.8288,1.8297,1.829,1.8264,1.8271,1.8292,1.8288,1.8294,1.8284,1.8301,1.831,1.8277,1.8273,1.8243,1.8264,1.8336,1.8226,1.8225,1.8248,1.8401,1.8428,1.8442,1.8312,1.8314,1.8316,1.8402,0,1.8413,1.8444,1.8405,1.8446,1.8455,1.8401,1.8419,1.8406,1.8385,1.8391,1.8368,1.8375,1.8331,1.8328,1.8347,1.8324,1.8367,1.8317,1.8329,1.833,1.8335,1.8456,1.8485,1.8568,1.8413,1.8415,1.8416,0,1.8515,1.8509,1.8551,1.8523,1.8526,1.8543,1.8537,1.8543,1.8528,1.8511,1.8507,1.8471,1.8491,1.8443,1.847,1.8437,1.844,1.843,1.8432,1.8432,1.8378,1.846,1.8593,1.8606,1.8432,1.8431,1.843,0,1.8614,1.8617,1.8642,1.8637,1.8606,1.8619,1.8607,1.8589,1.859,1.8586,1.8586,1.8584,1.8584,1.8584,1.8549,1.8517,1.8582,1.853,1.857,1.8571,1.8586,1.8586,1.8722,1.8588,1.8587,1.8587,1.8587,0,1.8712,1.874,1.8687,1.8702,1.8732,1.8688,1.872,1.8702,1.8687,1.8699,1.8652,1.8666,1.8619,1.8627,1.8601,1.8629,1.8628,1.8617,1.8609,1.8621,1.8623,1.8622,1.8616,1.859,1.859,1.8589,1.8589,0,1.8828,1.8793,1.8817,1.8786,1.8778,1.8802,1.8776,1.879,1.8766,1.8783,1.8784,1.8748,1.8756,1.8721,1.8723,1.8705,1.8747,1.873,1.8752,1.8747,1.879,1.8786,1.8931,1.8948,1.8802,1.8804,1.8805,0,1.8893,1.8913,1.8884,1.8888,1.8878,1.8886,1.8887,1.8845,1.8848,1.8833,1.8849,1.8853,1.8854,1.8869,1.8844,1.8846,1.8829,1.8879,1.8828,1.884,1.883,1.883,1.8832,1.889,1.8891,1.8893,1.8894,0,1.9012,1.8994,1.8996,1.8993,1.8995,1.8991,1.8983,1.899,1.8945,1.8951,1.8958,1.8959,1.8961,1.8966,1.8963,1.8952,1.8916,1.891,1.892,1.8932,1.8945,1.894,1.8781,1.8907,1.8906,1.8905,1.8904,1.8904,1.9105,1.9121,1.9103,1.9107,1.9097,1.9092,1.9104,1.9082,1.9087,1.9085,1.906,1.9072,1.9059,1.905,1.9043,1.9053,1.9029,1.9043,1.9047,1.9051,1.9059,1.8943,1.9052,1.9052,1.9051,1.9051,1.9051,0,1.9222,1.9208,1.9213,1.9204,1.9208,1.9174,1.9164,1.917,1.9181,1.9171,1.9173,1.9182,1.9187,1.9163,1.9165,1.9178,1.9162,1.918,1.9179,1.9177,1.9079,1.9071,1.9193,1.9193,1.9193,1.9193,1.9193,1.9193,1.9284,1.9309,1.929,1.931,1.9296,1.9307,1.9305,1.9301,1.9292,1.9304,1.9308,1.9292,1.9276,1.9277,1.9281,1.9274,1.9277,1.9301,1.9289,1.9198,1.9184,1.9171,1.9163,1.9302,1.9302,1.9386,1.9387,1.9387]},{"header":{"parameterUnit":"m.s-1","parameterCategory":1,"la1":30.2991,"la2":30.254,"lo1":-89.0895,"lo2":-89.0444,"dy":0.0017,"dx":0.0017,"nx":28,"ny":28,"refTime":"2025-03-18T03:00:00:Z","depth":0,"parameterNumber":3,"parameterNumberName":"V-component_of_WINDS"},"data":[0,0,0,0,0,0,0,0,0,0,0,0,0,0,0,0,0,0,0,0,0,0,0,0,0,0,0,0,0,0,0,0,0,0,0,0,0,0,0,0,0,0,0,0,0,0,0,0,0,0,0,0,0,0,0,0,0,0,6.0995,6.0998,0,6.1224,6.1227,6.1229,6.1252,6.125,6.1247,6.1245,6.1473,6.1481,6.1489,0,0,0,0,0,0,0,0,0,0,0,0,0,6.0571,6.0579,6.0995,6.0998,6.1001,6.1224,6.1227,6.123,6.1252,6.1249,6.1247,6.1244,6.147,6.148,6.1489,0,0,0,0,0,0,0,0,0,0,0,0,0,6.0773,6.0581,6.0995,6.1039,6.1045,6.1223,6.1227,6.1231,6.1253,6.1249,6.1246,6.1243,6.1467,6.1479,6.1491,6.1638,0,0,6.1529,6.1534,0,0,0,0,0,0,0,0,6.0762,6.0789,6.103,6.1036,6.1044,6.1206,6.1161,6.1367,6.1254,6.1174,6.1245,6.1241,6.1386,6.1405,6.1456,6.1649,6.1658,6.153,6.1537,6.1543,6.1546,0,0,0,0,0,0,0,6.0748,6.0779,6.1086,6.1033,6.1042,6.1046,6.107,6.12,6.1297,6.1181,6.1183,6.121,6.1389,6.1443,6.1461,6.1662,6.1529,6.154,6.1548,6.1553,6.1987,6.1991,0,0,0,0,0,0,6.0726,6.0767,6.1078,6.1092,6.0891,6.1056,6.1084,6.1157,6.1296,6.1313,6.1213,6.121,6.1424,6.1447,6.1469,6.1652,6.1542,6.1554,6.1561,6.1983,6.1988,6.1993,0,0,0,0,0,0,6.0717,6.0754,6.1069,6.0931,6.0971,6.1067,6.115,6.1164,6.1218,6.132,6.1337,6.1251,6.1422,6.1452,6.1597,6.166,6.156,6.1571,6.1978,6.1985,6.199,6.2017,0,0,0,0,0,0,6.0705,6.075,6.0809,6.0932,6.0978,6.1195,6.1154,6.1171,6.124,6.1239,6.136,6.1377,6.1422,6.1578,6.1609,6.1675,6.1581,6.1973,6.1981,6.1989,6.2011,6.2023,6.2034,0,0,0,0,0,6.069,6.0805,6.0812,6.0849,6.1054,6.1198,6.1225,6.1276,6.1245,6.1304,6.1369,6.1373,6.1647,6.1593,6.1627,6.1698,6.1969,6.1979,6.1988,6.2006,6.2021,6.2034,0,0,0,0,0,0,6.0685,6.0822,6.0831,6.099,6.1083,6.1202,6.1278,6.129,6.1392,6.1386,6.1443,6.147,6.1613,6.167,6.1606,6.1848,6.1805,6.1822,6.1807,6.1822,6.1833,6.1817,6.1591,0,0,0,0,0,6.0703,6.0811,6.0924,6.1054,6.11,6.1181,6.1246,6.1277,6.1375,6.1413,6.1489,6.1581,6.1689,6.1758,6.1862,6.2018,6.2045,6.2084,6.2096,6.2105,6.2119,6.2206,6.2225,6.2023,6.2023,6.2023,0,0,6.074,6.0828,6.0893,6.1055,6.1131,6.124,6.1213,6.133,6.1411,6.143,6.1573,6.1631,6.1738,6.189,6.196,6.1941,6.218,6.2116,6.2123,6.2132,6.2218,6.2237,6.2254,6.2029,6.2028,6.2027,0,0,6.0864,6.0942,6.106,6.1136,6.1252,6.1305,6.1333,6.1451,6.1491,6.1636,6.1653,6.1748,6.1932,6.2008,6.207,6.2223,6.223,6.2255,6.2315,6.24,6.2416,6.243,6.2486,6.2505,6.2268,6.2268,6.2268,0,6.0896,6.1063,6.1117,6.1235,6.1305,6.133,6.1449,6.1519,6.1661,6.1709,6.1686,6.1918,6.1991,6.2161,6.2199,6.2248,6.2281,6.2242,6.241,6.2425,6.2439,6.2493,6.2513,6.2271,6.2271,6.227,6.227,0,6.1097,6.1212,6.1293,6.1433,6.1512,6.1629,6.17,6.1773,6.1797,6.1852,6.1998,6.2087,6.2211,6.2253,6.2277,6.2427,6.2411,6.2398,6.2356,6.246,6.2511,6.2532,6.2274,6.2273,6.2273,6.2272,0,0,6.1225,6.1395,6.1424,6.1488,6.1617,6.1707,6.1824,6.1947,6.2009,6.2106,6.2205,6.236,6.2349,6.242,6.2452,6.2526,6.2643,6.2505,6.2508,6.2528,6.2815,6.2825,6.2848,6.2648,6.2652,6.2656,6.2806,0,6.1365,6.1579,6.1631,6.1812,6.192,6.1944,6.2046,6.2135,6.2189,6.2287,6.2345,6.2455,6.2432,6.2475,6.2549,6.2613,6.2702,6.2603,6.274,6.2745,6.2715,6.2875,6.2886,6.3024,6.2826,6.283,6.2832,0,6.1558,6.1663,6.1855,6.1972,6.2019,6.211,6.2227,6.232,6.2421,6.2455,6.2535,6.256,6.2681,6.2632,6.2799,6.2731,6.279,6.2829,6.2836,6.2852,6.2796,6.2896,6.3069,6.309,6.2864,6.2862,6.2859,0,6.1634,6.1822,6.1963,6.2017,6.2155,6.2219,6.2279,6.2377,6.2448,6.2549,6.2595,6.2708,6.277,6.2856,6.291,6.2869,6.3073,6.3028,6.3104,6.3103,6.3147,6.3144,6.3333,6.3182,6.3182,6.3182,6.3181,0,6.1787,6.1904,6.1999,6.2086,6.2217,6.2275,6.2403,6.2463,6.255,6.2647,6.2673,6.2763,6.2829,6.2927,6.297,6.3102,6.3129,6.3159,6.3169,6.3158,6.3155,6.3199,6.3191,6.3187,6.3186,6.3185,6.3184,0,6.1895,6.1963,6.2118,6.2238,6.227,6.2362,6.2463,6.2547,6.2601,6.2724,6.2756,6.2841,6.2958,6.302,6.3166,6.3194,6.3344,6.3347,6.3311,6.3315,6.3388,6.3381,6.3614,6.3647,6.3472,6.3474,6.3475,0,6.1988,6.208,6.2209,6.2278,6.234,6.2449,6.2523,6.2582,6.2656,6.2779,6.2847,6.2967,6.3066,6.3251,6.3325,6.3436,6.3444,6.3518,6.3461,6.3447,6.3447,6.3441,6.3451,6.3528,6.3529,6.3531,6.3532,0,6.2147,6.2177,6.2283,6.2401,6.2489,6.2584,6.2677,6.2731,6.2805,6.2887,6.301,6.3086,6.3237,6.3354,6.3472,6.3531,6.3544,6.3549,6.3573,6.3563,6.3539,6.3554,6.334,6.3544,6.3543,6.3542,6.3541,6.3541,6.2252,6.2335,6.244,6.2557,6.2634,6.2722,6.2807,6.2873,6.2977,6.3106,6.3134,6.3262,6.336,6.352,6.3582,6.3682,6.3667,6.3701,6.371,6.3718,6.3722,6.3522,6.3703,6.3703,6.3703,6.3703,6.3702,0,6.2414,6.2483,6.259,6.2722,6.2814,6.282,6.2924,6.3,6.3114,6.3206,6.3303,6.3443,6.3558,6.364,6.3756,6.382,6.3829,6.3849,6.3846,6.3859,6.3728,6.3697,6.384,6.384,6.384,6.384,6.384,6.384,6.2509,6.265,6.2692,6.2871,6.2939,6.3068,6.3127,6.3207,6.3281,6.3437,6.3533,6.3587,6.3675,6.3798,6.3902,6.3923,6.3965,6.3985,6.4006,6.3883,6.3868,6.3854,6.3825,6.3993,6.3993,6.413,6.4131,6.4132]}]]